Time,TemperatureF,DewpointF,PressureIn,WindDirection,WindDirectionDegrees,WindSpeedMPH,WindSpeedGustMPH,Humidity,HourlyPrecipIn,Conditions,Clouds,dailyrainin,SoftwareType,DateUTC
2013-03-28 00:00:00,60.2,50.4,30.20,SSE,164,0.0,1.0,70,0.00,,SKC,0.00,VWS V14.01,2013-03-28 05:00:00,
2013-03-28 00:05:00,60.2,50.4,30.19,SSE,164,0.0,1.0,70,0.00,,SKC,0.00,VWS V14.01,2013-03-28 05:05:00,
2013-03-28 00:10:00,60.2,50.4,30.20,SSE,164,0.0,0.0,70,0.00,,SKC,0.00,VWS V14.01,2013-03-28 05:10:00,
2013-03-28 00:15:00,60.2,50.8,30.19,SSE,164,0.0,0.0,71,0.00,,SKC,0.00,VWS V14.01,2013-03-28 05:15:00,
2013-03-28 00:20:00,60.2,50.8,30.19,SSE,163,0.0,0.0,71,0.00,,SKC,0.00,VWS V14.01,2013-03-28 05:20:00,
2013-03-28 00:25:00,60.2,50.8,30.19,SSE,163,4.0,7.0,71,0.00,,SKC,0.00,VWS V14.01,2013-03-28 05:25:00,
2013-03-28 00:30:00,60.2,51.2,30.19,SSE,163,0.0,7.0,72,0.00,,SKC,0.00,VWS V14.01,2013-03-28 05:30:00,
2013-03-28 00:35:00,60.2,51.2,30.19,SSE,164,0.0,8.0,72,0.00,,SKC,0.00,VWS V14.01,2013-03-28 05:35:00,
2013-03-28 00:40:00,60.2,51.2,30.19,SSE,164,0.0,2.0,72,0.00,,SKC,0.00,VWS V14.01,2013-03-28 05:40:00,
2013-03-28 00:45:00,60.2,51.2,30.19,SSE,163,0.0,6.0,72,0.00,,SKC,0.00,VWS V14.01,2013-03-28 05:45:00,
2013-03-28 00:50:00,60.1,51.1,30.19,SSE,163,0.0,2.0,72,0.00,,SKC,0.00,VWS V14.01,2013-03-28 05:50:00,
2013-03-28 00:55:00,60.1,51.1,30.18,SSE,163,0.0,2.0,72,0.00,,SKC,0.00,VWS V14.01,2013-03-28 05:55:00,
2013-03-28 01:00:00,60.1,51.1,30.18,SSE,163,0.0,5.0,72,0.00,,SKC,0.00,VWS V14.01,2013-03-28 06:00:00,
2013-03-28 01:05:00,60.0,51.3,30.18,SSE,163,0.0,7.0,73,0.00,,SKC,0.00,VWS V14.01,2013-03-28 06:05:00,
2013-03-28 01:10:00,60.1,51.4,30.18,SSE,163,0.0,6.0,73,0.00,,SKC,0.00,VWS V14.01,2013-03-28 06:10:00,
2013-03-28 01:15:00,60.0,51.3,30.18,SSE,163,0.0,6.0,73,0.00,,SKC,0.00,VWS V14.01,2013-03-28 06:15:00,
2013-03-28 01:20:00,60.0,51.3,30.18,SSE,163,1.0,5.0,73,0.00,,SKC,0.00,VWS V14.01,2013-03-28 06:20:00,
2013-03-28 01:25:00,60.0,51.3,30.18,SSE,163,1.0,6.0,73,0.00,,SKC,0.00,VWS V14.01,2013-03-28 06:25:00,
2013-03-28 01:30:00,60.0,51.7,30.18,SSE,163,0.0,0.0,74,0.00,,SKC,0.00,VWS V14.01,2013-03-28 06:30:00,
2013-03-28 01:35:00,60.0,51.7,30.18,SSE,163,0.0,3.0,74,0.00,,SKC,0.00,VWS V14.01,2013-03-28 06:35:00,
2013-03-28 01:40:00,59.9,51.6,30.18,SSE,163,0.0,4.0,74,0.00,,SKC,0.00,VWS V14.01,2013-03-28 06:40:00,
2013-03-28 01:45:00,59.9,51.6,30.18,SSE,163,0.0,4.0,74,0.00,,SKC,0.00,VWS V14.01,2013-03-28 06:45:00,
2013-03-28 01:50:00,59.9,51.6,30.18,SSE,163,0.0,2.0,74,0.00,,SKC,0.00,VWS V14.01,2013-03-28 06:50:00,
2013-03-28 01:55:00,59.9,51.6,30.17,SSE,163,0.0,5.0,74,0.00,,SKC,0.00,VWS V14.01,2013-03-28 06:55:00,
2013-03-28 02:00:00,59.8,51.9,30.17,SSE,163,0.0,3.0,75,0.00,,SKC,0.00,VWS V14.01,2013-03-28 07:00:00,
2013-03-28 02:05:00,59.8,51.9,30.17,SSE,163,0.0,3.0,75,0.00,,SKC,0.00,VWS V14.01,2013-03-28 07:05:00,
2013-03-28 02:10:00,59.8,51.9,30.17,SSE,163,0.0,0.0,75,0.00,,SKC,0.00,VWS V14.01,2013-03-28 07:10:00,
2013-03-28 02:15:00,59.8,51.9,30.17,SSE,163,0.0,0.0,75,0.00,,SKC,0.00,VWS V14.01,2013-03-28 07:15:00,
2013-03-28 02:20:00,59.7,51.8,30.17,SSE,163,0.0,0.0,75,0.00,,SKC,0.00,VWS V14.01,2013-03-28 07:20:00,
2013-03-28 02:25:00,59.7,52.1,30.16,SSE,163,0.0,5.0,76,0.00,,SKC,0.00,VWS V14.01,2013-03-28 07:25:00,
2013-03-28 02:30:00,59.7,52.1,30.16,SSE,163,0.0,0.0,76,0.00,,SKC,0.00,VWS V14.01,2013-03-28 07:30:00,
2013-03-28 02:35:00,59.7,52.1,30.17,SSE,163,1.0,1.0,76,0.00,,SKC,0.00,VWS V14.01,2013-03-28 07:35:00,
2013-03-28 02:40:00,59.7,52.1,30.16,SSE,163,0.0,4.0,76,0.00,,SKC,0.00,VWS V14.01,2013-03-28 07:40:00,
2013-03-28 02:45:00,59.6,52.0,30.16,SSE,163,0.0,4.0,76,0.00,,SKC,0.00,VWS V14.01,2013-03-28 07:45:00,
2013-03-28 02:50:00,59.6,52.0,30.16,SSE,163,0.0,4.0,76,0.00,,SKC,0.00,VWS V14.01,2013-03-28 07:50:00,
2013-03-28 02:55:00,59.6,52.4,30.15,SSE,163,0.0,4.0,77,0.00,,SKC,0.00,VWS V14.01,2013-03-28 07:55:00,
2013-03-28 03:00:00,59.5,52.3,30.15,SSE,163,0.0,5.0,77,0.00,,SKC,0.00,VWS V14.01,2013-03-28 08:00:00,
2013-03-28 03:05:00,59.5,52.3,30.15,SSE,163,0.0,6.0,77,0.00,,SKC,0.00,VWS V14.01,2013-03-28 08:05:00,
2013-03-28 03:10:00,59.4,52.2,30.15,SSE,163,0.0,4.0,77,0.00,,SKC,0.00,VWS V14.01,2013-03-28 08:10:00,
2013-03-28 03:15:00,59.3,52.1,30.14,SSE,163,0.0,4.0,77,0.00,,SKC,0.00,VWS V14.01,2013-03-28 08:15:00,
2013-03-28 03:20:00,59.2,52.3,30.14,SSE,163,1.0,3.0,78,0.00,,SKC,0.00,VWS V14.01,2013-03-28 08:20:00,
2013-03-28 03:25:00,59.1,52.3,30.14,SSE,163,0.0,3.0,78,0.00,,SKC,0.00,VWS V14.01,2013-03-28 08:25:00,
2013-03-28 03:30:00,58.9,52.1,30.14,SSE,163,0.0,0.0,78,0.00,,SKC,0.00,VWS V14.01,2013-03-28 08:30:00,
2013-03-28 03:35:00,58.8,52.3,30.14,SSE,163,0.0,0.0,79,0.00,,SKC,0.00,VWS V14.01,2013-03-28 08:35:00,
2013-03-28 03:40:00,58.6,52.1,30.14,SSE,163,0.0,5.0,79,0.00,,SKC,0.00,VWS V14.01,2013-03-28 08:40:00,
2013-03-28 03:45:00,58.5,52.0,30.13,SSE,163,0.0,5.0,79,0.00,,SKC,0.00,VWS V14.01,2013-03-28 08:45:00,
2013-03-28 03:50:00,58.4,52.3,30.13,SSE,163,0.0,2.0,80,0.00,,SKC,0.00,VWS V14.01,2013-03-28 08:50:00,
2013-03-28 03:55:00,58.3,52.2,30.13,SSE,163,0.0,2.0,80,0.00,,SKC,0.00,VWS V14.01,2013-03-28 08:55:00,
2013-03-28 04:00:00,58.2,52.1,30.13,SSE,163,0.0,3.0,80,0.00,,SKC,0.00,VWS V14.01,2013-03-28 09:00:00,
2013-03-28 04:05:00,58.2,52.4,30.13,SSE,163,0.0,3.0,81,0.00,,SKC,0.00,VWS V14.01,2013-03-28 09:05:00,
2013-03-28 04:10:00,58.2,52.4,30.12,SSE,163,0.0,0.0,81,0.00,,SKC,0.00,VWS V14.01,2013-03-28 09:10:00,
2013-03-28 04:15:00,58.1,52.3,30.12,SSE,163,0.0,0.0,81,0.00,,SKC,0.00,VWS V14.01,2013-03-28 09:15:00,
2013-03-28 04:20:00,58.1,52.3,30.12,SSE,163,0.0,0.0,81,0.00,,SKC,0.00,VWS V14.01,2013-03-28 09:20:00,
2013-03-28 04:25:00,58.0,52.2,30.12,SSE,163,0.0,0.0,81,0.00,,SKC,0.00,VWS V14.01,2013-03-28 09:25:00,
2013-03-28 04:30:00,58.0,52.2,30.12,SSE,163,0.0,1.0,81,0.00,,SKC,0.00,VWS V14.01,2013-03-28 09:30:00,
2013-03-28 04:35:00,58.0,52.5,30.12,SSE,163,0.0,1.0,82,0.00,,SKC,0.00,VWS V14.01,2013-03-28 09:35:00,
2013-03-28 04:40:00,58.1,52.6,30.12,SSE,163,2.0,2.0,82,0.00,,SKC,0.00,VWS V14.01,2013-03-28 09:40:00,
2013-03-28 04:45:00,58.0,52.5,30.12,SSE,163,0.0,3.0,82,0.00,,SKC,0.00,VWS V14.01,2013-03-28 09:45:00,
2013-03-28 04:50:00,58.1,52.6,30.12,SSE,163,0.0,0.0,82,0.00,,SKC,0.00,VWS V14.01,2013-03-28 09:50:00,
2013-03-28 04:55:00,58.1,52.6,30.12,SSE,163,0.0,0.0,82,0.00,,SKC,0.00,VWS V14.01,2013-03-28 09:55:00,
2013-03-28 05:00:00,58.1,52.6,30.12,SSE,163,0.0,0.0,82,0.00,,SKC,0.00,VWS V14.01,2013-03-28 10:00:00,
2013-03-28 05:05:00,58.0,52.5,30.12,SSE,163,0.0,0.0,82,0.00,,SKC,0.00,VWS V14.01,2013-03-28 10:05:00,
2013-03-28 05:10:00,58.0,52.5,30.12,SSE,163,0.0,0.0,82,0.00,,SKC,0.00,VWS V14.01,2013-03-28 10:10:00,
2013-03-28 05:15:00,58.1,52.6,30.12,SSE,163,0.0,0.0,82,0.00,,SKC,0.00,VWS V14.01,2013-03-28 10:15:00,
2013-03-28 05:20:00,58.1,52.6,30.12,SSE,163,0.0,0.0,82,0.00,,SKC,0.00,VWS V14.01,2013-03-28 10:20:00,
2013-03-28 05:25:00,58.1,52.6,30.12,SSE,163,0.0,0.0,82,0.00,,SKC,0.00,VWS V14.01,2013-03-28 10:25:00,
2013-03-28 05:30:00,58.1,52.6,30.12,SSE,163,0.0,0.0,82,0.00,,SKC,0.00,VWS V14.01,2013-03-28 10:30:00,
2013-03-28 05:35:00,58.1,52.6,30.12,SSE,163,0.0,0.0,82,0.00,,SKC,0.00,VWS V14.01,2013-03-28 10:35:00,
2013-03-28 05:40:00,58.1,52.6,30.12,SSE,163,0.0,0.0,82,0.00,,SKC,0.00,VWS V14.01,2013-03-28 10:40:00,
2013-03-28 05:45:00,58.0,52.5,30.12,SSE,163,0.0,0.0,82,0.00,,SKC,0.00,VWS V14.01,2013-03-28 10:45:00,
2013-03-28 05:50:00,58.0,52.9,30.12,SSE,163,0.0,0.0,83,0.00,,SKC,0.00,VWS V14.01,2013-03-28 10:50:00,
2013-03-28 05:55:00,58.0,52.9,30.12,SSE,163,0.0,0.0,83,0.00,,SKC,0.00,VWS V14.01,2013-03-28 10:55:00,
2013-03-28 06:00:00,58.0,52.9,30.12,SSE,163,0.0,0.0,83,0.00,,SKC,0.00,VWS V14.01,2013-03-28 11:00:00,
2013-03-28 06:05:00,58.0,52.9,30.13,SSE,163,0.0,0.0,83,0.00,,SKC,0.00,VWS V14.01,2013-03-28 11:05:00,
2013-03-28 06:10:00,58.0,52.9,30.13,SSE,163,0.0,0.0,83,0.00,,SKC,0.00,VWS V14.01,2013-03-28 11:10:00,
2013-03-28 06:15:00,58.1,53.0,30.13,SSE,163,0.0,0.0,83,0.00,,SKC,0.00,VWS V14.01,2013-03-28 11:15:00,
2013-03-28 06:20:00,58.1,53.0,30.13,SSE,163,0.0,0.0,83,0.00,,SKC,0.00,VWS V14.01,2013-03-28 11:20:00,
2013-03-28 06:25:00,58.2,53.1,30.13,SSE,163,0.0,0.0,83,0.00,,SKC,0.00,VWS V14.01,2013-03-28 11:25:00,
2013-03-28 06:30:00,58.2,53.1,30.13,SSE,163,0.0,4.0,83,0.00,,SKC,0.00,VWS V14.01,2013-03-28 11:30:00,
2013-03-28 06:35:00,58.3,53.2,30.14,SSE,163,0.0,4.0,83,0.00,,SKC,0.00,VWS V14.01,2013-03-28 11:35:00,
2013-03-28 06:40:00,58.4,53.3,30.14,SSE,163,0.0,0.0,83,0.00,,SKC,0.00,VWS V14.01,2013-03-28 11:40:00,
2013-03-28 06:45:00,58.4,53.3,30.14,SSE,163,0.0,5.0,83,0.00,,SKC,0.00,VWS V14.01,2013-03-28 11:45:00,
2013-03-28 06:50:00,58.5,53.4,30.14,SSE,163,0.0,0.0,83,0.00,,SKC,0.00,VWS V14.01,2013-03-28 11:50:00,
2013-03-28 06:55:00,58.5,53.4,30.14,SSE,163,0.0,0.0,83,0.00,,SKC,0.00,VWS V14.01,2013-03-28 11:55:00,
2013-03-28 07:00:00,58.6,53.5,30.14,SSE,163,0.0,0.0,83,0.00,,SKC,0.00,VWS V14.01,2013-03-28 12:00:00,
2013-03-28 07:05:00,58.6,53.5,30.14,SSE,163,0.0,0.0,83,0.00,,SKC,0.00,VWS V14.01,2013-03-28 12:05:00,
2013-03-28 07:10:00,58.6,53.5,30.14,SSE,163,0.0,0.0,83,0.00,,SKC,0.00,VWS V14.01,2013-03-28 12:10:00,
2013-03-28 07:15:00,58.6,53.5,30.14,SSE,163,0.0,0.0,83,0.00,,SKC,0.00,VWS V14.01,2013-03-28 12:15:00,
2013-03-28 07:20:00,58.6,53.5,30.15,SSE,163,0.0,0.0,83,0.00,,SKC,0.00,VWS V14.01,2013-03-28 12:20:00,
2013-03-28 07:25:00,58.7,53.6,30.15,SSE,163,0.0,0.0,83,0.00,,SKC,0.00,VWS V14.01,2013-03-28 12:25:00,
2013-03-28 07:30:00,58.7,53.6,30.15,SSE,163,0.0,0.0,83,0.00,,SKC,0.00,VWS V14.01,2013-03-28 12:30:00,
2013-03-28 07:35:00,58.7,53.6,30.15,SSE,163,0.0,0.0,83,0.00,,SKC,0.00,VWS V14.01,2013-03-28 12:35:00,
2013-03-28 07:40:00,58.7,53.6,30.15,SSE,163,0.0,0.0,83,0.00,,SKC,0.00,VWS V14.01,2013-03-28 12:40:00,
2013-03-28 07:45:00,58.8,53.7,30.15,SSE,163,0.0,0.0,83,0.00,,SKC,0.00,VWS V14.01,2013-03-28 12:45:00,
2013-03-28 07:50:00,58.8,53.7,30.15,SSE,163,0.0,0.0,83,0.00,,SKC,0.00,VWS V14.01,2013-03-28 12:50:00,
2013-03-28 07:55:00,58.8,54.0,30.15,SSE,163,0.0,0.0,84,0.00,,SKC,0.00,VWS V14.01,2013-03-28 12:55:00,
2013-03-28 08:00:00,58.9,54.1,30.16,SSE,163,0.0,0.0,84,0.00,,SKC,0.00,VWS V14.01,2013-03-28 13:00:00,
2013-03-28 08:05:00,58.9,54.1,30.16,SSE,163,0.0,0.0,84,0.00,,SKC,0.00,VWS V14.01,2013-03-28 13:05:00,
2013-03-28 08:10:00,59.0,54.2,30.16,SSE,163,0.0,0.0,84,0.00,,SKC,0.00,VWS V14.01,2013-03-28 13:10:00,
2013-03-28 08:15:00,59.1,54.3,30.16,SSE,163,0.0,1.0,84,0.00,,SKC,0.00,VWS V14.01,2013-03-28 13:15:00,
2013-03-28 08:20:00,59.2,54.4,30.16,SSE,163,0.0,0.0,84,0.00,,SKC,0.00,VWS V14.01,2013-03-28 13:20:00,
2013-03-28 08:25:00,59.3,54.5,30.16,SSE,163,0.0,0.0,84,0.00,,SKC,0.00,VWS V14.01,2013-03-28 13:25:00,
2013-03-28 08:30:00,59.4,54.6,30.16,SSE,163,0.0,0.0,84,0.00,,SKC,0.00,VWS V14.01,2013-03-28 13:30:00,
2013-03-28 08:35:00,59.5,54.7,30.16,SSE,163,0.0,0.0,84,0.00,,SKC,0.00,VWS V14.01,2013-03-28 13:35:00,
2013-03-28 08:40:00,59.7,54.9,30.16,SSE,163,0.0,0.0,84,0.00,,SKC,0.00,VWS V14.01,2013-03-28 13:40:00,
2013-03-28 08:45:00,59.9,55.1,30.16,SSE,163,0.0,2.0,84,0.00,,SKC,0.00,VWS V14.01,2013-03-28 13:45:00,
2013-03-28 08:50:00,60.1,54.9,30.16,SSE,163,0.0,1.0,83,0.00,,SKC,0.00,VWS V14.01,2013-03-28 13:50:00,
2013-03-28 08:55:00,60.2,55.0,30.17,SSE,163,0.0,1.0,83,0.00,,SKC,0.00,VWS V14.01,2013-03-28 13:55:00,
2013-03-28 09:00:00,60.4,55.2,30.17,SSE,163,0.0,5.0,83,0.00,,SKC,0.00,VWS V14.01,2013-03-28 14:00:00,
2013-03-28 09:05:00,60.5,55.3,30.17,SSE,163,0.0,5.0,83,0.00,,SKC,0.00,VWS V14.01,2013-03-28 14:05:00,
2013-03-28 09:10:00,60.7,55.5,30.17,SSE,163,0.0,5.0,83,0.00,,SKC,0.00,VWS V14.01,2013-03-28 14:10:00,
2013-03-28 09:15:00,60.8,55.6,30.17,SSE,163,0.0,7.0,83,0.00,,SKC,0.00,VWS V14.01,2013-03-28 14:15:00,
2013-03-28 09:20:00,61.0,55.5,30.17,SSE,163,0.0,0.0,82,0.00,,SKC,0.00,VWS V14.01,2013-03-28 14:20:00,
2013-03-28 09:25:00,61.3,55.8,30.17,SSE,163,0.0,6.0,82,0.00,,SKC,0.00,VWS V14.01,2013-03-28 14:25:00,
2013-03-28 09:30:00,61.5,56.0,30.17,SSE,163,0.0,0.0,82,0.00,,SKC,0.00,VWS V14.01,2013-03-28 14:30:00,
2013-03-28 09:35:00,61.7,56.2,30.17,SSE,163,0.0,5.0,82,0.00,,SKC,0.00,VWS V14.01,2013-03-28 14:35:00,
2013-03-28 09:40:00,61.9,56.0,30.17,SSE,163,0.0,7.0,81,0.00,,SKC,0.00,VWS V14.01,2013-03-28 14:40:00,
2013-03-28 09:45:00,62.1,56.2,30.17,SSE,160,5.0,7.0,81,0.00,,SKC,0.00,VWS V14.01,2013-03-28 14:45:00,
2013-03-28 09:50:00,62.2,56.3,30.18,SSE,159,0.0,7.0,81,0.00,,SKC,0.00,VWS V14.01,2013-03-28 14:50:00,
2013-03-28 09:55:00,62.3,56.4,30.18,SSE,159,0.0,7.0,81,0.00,,SKC,0.00,VWS V14.01,2013-03-28 14:55:00,
2013-03-28 10:00:00,62.5,56.6,30.17,SSE,159,0.0,6.0,81,0.00,,SKC,0.00,VWS V14.01,2013-03-28 15:00:00,
2013-03-28 10:05:00,62.6,56.7,30.18,SSE,161,3.0,8.0,81,0.00,,SKC,0.00,VWS V14.01,2013-03-28 15:05:00,
2013-03-28 10:10:00,62.8,56.5,30.18,SSE,161,0.0,5.0,80,0.00,,SKC,0.00,VWS V14.01,2013-03-28 15:10:00,
2013-03-28 10:15:00,63.0,56.7,30.17,SSE,161,3.0,5.0,80,0.00,,SKC,0.00,VWS V14.01,2013-03-28 15:15:00,
2013-03-28 10:20:00,63.1,56.8,30.18,SSE,161,2.0,8.0,80,0.00,,SKC,0.00,VWS V14.01,2013-03-28 15:20:00,
2013-03-28 10:25:00,63.2,56.9,30.18,SSE,161,7.0,8.0,80,0.00,,SKC,0.00,VWS V14.01,2013-03-28 15:25:00,
2013-03-28 10:30:00,63.3,57.0,30.18,SSE,161,0.0,6.0,80,0.00,,SKC,0.00,VWS V14.01,2013-03-28 15:30:00,
2013-03-28 10:35:00,63.4,57.1,30.18,SSE,163,9.0,11.0,80,0.00,,SKC,0.00,VWS V14.01,2013-03-28 15:35:00,
2013-03-28 10:39:00,63.5,57.2,30.18,SSE,163,0.0,10.0,80,0.00,,SKC,0.00,VWS V14.01,2013-03-28 15:39:00,
2013-03-28 10:40:00,63.4,57.1,30.18,SSE,165,0.0,11.0,80,0.00,,SKC,0.00,VWS V14.01,2013-03-28 15:40:00,
2013-03-28 10:44:00,63.6,57.3,30.18,SSE,160,0.0,11.0,80,0.00,,SKC,0.00,VWS V14.01,2013-03-28 15:44:00,
2013-03-28 10:49:00,63.8,57.5,30.19,SSE,161,3.0,12.0,80,0.00,,SKC,0.00,VWS V14.01,2013-03-28 15:49:00,
2013-03-28 10:50:00,63.7,57.4,30.19,SSE,160,0.0,11.0,80,0.00,,SKC,0.00,VWS V14.01,2013-03-28 15:50:00,
2013-03-28 10:54:00,63.9,57.3,30.19,SSE,163,0.0,12.0,79,0.00,,SKC,0.00,VWS V14.01,2013-03-28 15:54:00,
2013-03-28 10:59:00,64.1,57.5,30.19,SSE,163,7.0,9.0,79,0.00,,SKC,0.00,VWS V14.01,2013-03-28 15:59:00,
2013-03-28 11:00:00,64.0,57.4,30.19,SSE,162,2.0,12.0,79,0.00,,SKC,0.00,VWS V14.01,2013-03-28 16:00:00,
2013-03-28 11:04:00,64.3,57.7,30.19,SSE,159,7.0,10.0,79,0.00,,SKC,0.00,VWS V14.01,2013-03-28 16:04:00,
2013-03-28 11:09:00,64.5,57.5,30.19,SSE,165,9.0,11.0,78,0.00,,SKC,0.00,VWS V14.01,2013-03-28 16:09:00,
2013-03-28 11:10:00,64.4,57.8,30.19,SSE,159,0.0,10.0,79,0.00,,SKC,0.00,VWS V14.01,2013-03-28 16:10:00,
2013-03-28 11:14:00,64.7,57.7,30.19,SSE,164,0.0,11.0,78,0.00,,SKC,0.00,VWS V14.01,2013-03-28 16:14:00,
2013-03-28 11:19:00,64.8,57.8,30.19,SSE,165,0.0,8.0,78,0.00,,SKC,0.00,VWS V14.01,2013-03-28 16:19:00,
2013-03-28 11:20:00,64.7,57.7,30.19,SSE,164,0.0,11.0,78,0.00,,SKC,0.00,VWS V14.01,2013-03-28 16:20:00,
2013-03-28 11:24:00,65.0,58.0,30.19,SSE,165,0.0,8.0,78,0.00,,SKC,0.00,VWS V14.01,2013-03-28 16:24:00,
2013-03-28 11:29:00,65.1,57.7,30.19,SSE,167,7.0,10.0,77,0.00,,SKC,0.00,VWS V14.01,2013-03-28 16:29:00,
2013-03-28 11:30:00,65.0,58.0,30.19,SSE,163,6.0,11.0,78,0.00,,SKC,0.00,VWS V14.01,2013-03-28 16:30:00,
2013-03-28 11:34:00,65.2,57.8,30.19,SSE,167,3.0,10.0,77,0.00,,SKC,0.00,VWS V14.01,2013-03-28 16:34:00,
2013-03-28 11:39:00,65.3,57.9,30.18,SSE,166,0.0,9.0,77,0.00,,SKC,0.00,VWS V14.01,2013-03-28 16:39:00,
2013-03-28 11:40:00,65.2,57.8,30.19,SSE,168,1.0,10.0,77,0.00,,SKC,0.00,VWS V14.01,2013-03-28 16:40:00,
2013-03-28 11:44:00,65.4,58.0,30.18,South,171,2.0,12.0,77,0.00,,SKC,0.00,VWS V14.01,2013-03-28 16:44:00,
2013-03-28 11:49:00,65.7,58.3,30.18,SSE,167,5.0,10.0,77,0.00,,SKC,0.00,VWS V14.01,2013-03-28 16:49:00,
2013-03-28 11:50:00,65.5,58.1,30.18,South,171,0.0,12.0,77,0.00,,SKC,0.00,VWS V14.01,2013-03-28 16:50:00,
2013-03-28 11:54:00,65.9,58.1,30.18,SSE,163,0.0,10.0,76,0.00,,SKC,0.00,VWS V14.01,2013-03-28 16:54:00,
2013-03-28 11:59:00,66.1,58.3,30.18,SSE,164,0.0,9.0,76,0.00,,SKC,0.00,VWS V14.01,2013-03-28 16:59:00,
2013-03-28 12:00:00,66.0,58.2,30.18,SSE,163,5.0,10.0,76,0.00,,SKC,0.00,VWS V14.01,2013-03-28 17:00:00,
2013-03-28 12:04:00,66.3,58.5,30.18,SSE,164,0.0,9.0,76,0.00,,SKC,0.00,VWS V14.01,2013-03-28 17:04:00,
2013-03-28 12:09:00,66.5,58.3,30.18,SSE,163,0.0,11.0,75,0.00,,SKC,0.00,VWS V14.01,2013-03-28 17:09:00,
2013-03-28 12:10:00,66.4,58.6,30.18,SSE,164,0.0,9.0,76,0.00,,SKC,0.00,VWS V14.01,2013-03-28 17:10:00,
2013-03-28 12:14:00,66.6,58.4,30.18,South,170,0.0,11.0,75,0.00,,SKC,0.00,VWS V14.01,2013-03-28 17:14:00,
2013-03-28 12:19:00,66.7,58.5,30.18,South,169,0.0,0.0,75,0.00,,SKC,0.00,VWS V14.01,2013-03-28 17:19:00,
2013-03-28 12:20:00,66.6,58.4,30.18,SSE,167,0.0,12.0,75,0.00,,SKC,0.00,VWS V14.01,2013-03-28 17:20:00,
2013-03-28 12:24:00,66.8,58.6,30.18,SSE,166,0.0,0.0,75,0.00,,SKC,0.00,VWS V14.01,2013-03-28 17:24:00,
2013-03-28 12:29:00,66.9,58.3,30.18,SSE,165,0.0,4.0,74,0.00,,SKC,0.00,VWS V14.01,2013-03-28 17:29:00,
2013-03-28 12:30:00,66.8,58.6,30.18,SSE,167,4.0,6.0,75,0.00,,SKC,0.00,VWS V14.01,2013-03-28 17:30:00,
2013-03-28 12:34:00,67.1,58.9,30.18,SSE,161,0.0,8.0,75,0.00,,SKC,0.00,VWS V14.01,2013-03-28 17:34:00,
2013-03-28 12:39:00,67.3,58.7,30.18,SSE,164,0.0,12.0,74,0.00,,SKC,0.00,VWS V14.01,2013-03-28 17:39:00,
2013-03-28 12:40:00,67.2,58.6,30.18,SSE,164,3.0,10.0,74,0.00,,SKC,0.00,VWS V14.01,2013-03-28 17:40:00,
2013-03-28 12:44:00,67.6,59.0,30.17,South,172,0.0,12.0,74,0.00,,SKC,0.00,VWS V14.01,2013-03-28 17:44:00,
2013-03-28 12:49:00,67.8,58.8,30.17,SSE,164,4.0,12.0,73,0.00,,SKC,0.00,VWS V14.01,2013-03-28 17:49:00,
2013-03-28 12:50:00,67.7,58.7,30.17,SSE,167,0.0,12.0,73,0.00,,SKC,0.00,VWS V14.01,2013-03-28 17:50:00,
2013-03-28 12:54:00,68.0,59.0,30.17,SSE,159,7.0,12.0,73,0.00,,SKC,0.00,VWS V14.01,2013-03-28 17:54:00,
2013-03-28 12:59:00,68.1,59.1,30.17,South,172,3.0,9.0,73,0.00,,SKC,0.00,VWS V14.01,2013-03-28 17:59:00,
2013-03-28 13:00:00,68.0,59.0,30.17,SSE,157,2.0,12.0,73,0.00,,SKC,0.00,VWS V14.01,2013-03-28 18:00:00,
2013-03-28 13:04:00,68.2,59.2,30.17,SSE,155,1.0,16.0,73,0.00,,SKC,0.00,VWS V14.01,2013-03-28 18:04:00,
2013-03-28 13:09:00,68.5,59.1,30.17,SSE,166,4.0,8.0,72,0.00,,SKC,0.00,VWS V14.01,2013-03-28 18:09:00,
2013-03-28 13:10:00,68.3,58.9,30.17,SSE,163,1.0,16.0,72,0.00,,SKC,0.00,VWS V14.01,2013-03-28 18:10:00,
2013-03-28 13:14:00,68.7,59.3,30.17,SSE,168,0.0,11.0,72,0.00,,SKC,0.00,VWS V14.01,2013-03-28 18:14:00,
2013-03-28 13:19:00,69.0,59.2,30.17,SSE,161,0.0,13.0,71,0.00,,SKC,0.00,VWS V14.01,2013-03-28 18:19:00,
2013-03-28 13:20:00,68.9,59.1,30.17,SSE,162,6.0,11.0,71,0.00,,SKC,0.00,VWS V14.01,2013-03-28 18:20:00,
2013-03-28 13:24:00,69.3,59.1,30.17,SSE,165,9.0,13.0,70,0.00,,SKC,0.00,VWS V14.01,2013-03-28 18:24:00,
2013-03-28 13:29:00,69.7,59.5,30.17,South,170,1.0,9.0,70,0.00,,SKC,0.00,VWS V14.01,2013-03-28 18:29:00,
2013-03-28 13:30:00,69.4,59.2,30.17,South,175,0.0,13.0,70,0.00,,SKC,0.00,VWS V14.01,2013-03-28 18:30:00,
2013-03-28 13:34:00,69.8,59.2,30.16,South,173,1.0,13.0,69,0.00,,SKC,0.00,VWS V14.01,2013-03-28 18:34:00,
2013-03-28 13:39:00,69.8,59.2,30.16,South,175,2.0,11.0,69,0.00,,SKC,0.00,VWS V14.01,2013-03-28 18:39:00,
2013-03-28 13:40:00,69.8,59.2,30.16,SSE,161,7.0,13.0,69,0.00,,SKC,0.00,VWS V14.01,2013-03-28 18:40:00,
2013-03-28 13:44:00,69.6,59.0,30.15,South,169,2.0,11.0,69,0.00,,SKC,0.00,VWS V14.01,2013-03-28 18:44:00,
2013-03-28 13:49:00,69.5,59.3,30.15,South,171,3.0,10.0,70,0.00,,SKC,0.00,VWS V14.01,2013-03-28 18:49:00,
2013-03-28 13:50:00,69.5,58.9,30.15,SSE,164,0.0,11.0,69,0.00,,SKC,0.00,VWS V14.01,2013-03-28 18:50:00,
2013-03-28 13:54:00,69.2,59.0,30.15,SSE,164,5.0,11.0,70,0.00,,SKC,0.00,VWS V14.01,2013-03-28 18:54:00,
2013-03-28 13:59:00,69.2,59.0,30.15,South,173,7.0,11.0,70,0.00,,SKC,0.00,VWS V14.01,2013-03-28 18:59:00,
2013-03-28 14:00:00,69.2,59.0,30.15,SSE,161,0.0,11.0,70,0.00,,SKC,0.00,VWS V14.01,2013-03-28 19:00:00,
2013-03-28 14:04:00,69.3,59.5,30.15,SSE,166,10.0,13.0,71,0.00,,SKC,0.00,VWS V14.01,2013-03-28 19:04:00,
2013-03-28 14:09:00,69.6,59.8,30.15,South,173,3.0,9.0,71,0.00,,SKC,0.00,VWS V14.01,2013-03-28 19:09:00,
2013-03-28 14:10:00,69.3,59.5,30.15,SSE,165,0.0,13.0,71,0.00,,SKC,0.00,VWS V14.01,2013-03-28 19:10:00,
2013-03-28 14:14:00,69.9,59.3,30.15,SSE,167,0.0,9.0,69,0.00,,SKC,0.00,VWS V14.01,2013-03-28 19:14:00,
2013-03-28 14:19:00,70.0,59.4,30.14,SSE,163,2.0,13.0,69,0.00,,SKC,0.00,VWS V14.01,2013-03-28 19:19:00,
2013-03-28 14:20:00,70.0,59.4,30.15,SSE,163,0.0,13.0,69,0.00,,SKC,0.00,VWS V14.01,2013-03-28 19:20:00,
2013-03-28 14:24:00,70.0,59.4,30.14,SSE,161,8.0,14.0,69,0.00,,SKC,0.00,VWS V14.01,2013-03-28 19:24:00,
2013-03-28 14:29:00,70.1,59.1,30.14,SSE,164,0.0,12.0,68,0.00,,SKC,0.00,VWS V14.01,2013-03-28 19:29:00,
2013-03-28 14:30:00,70.1,59.5,30.14,SSE,159,0.0,14.0,69,0.00,,SKC,0.00,VWS V14.01,2013-03-28 19:30:00,
2013-03-28 14:34:00,69.9,59.3,30.14,SSE,158,6.0,12.0,69,0.00,,SKC,0.00,VWS V14.01,2013-03-28 19:34:00,
2013-03-28 14:39:00,69.8,58.8,30.14,SSE,163,0.0,16.0,68,0.00,,SKC,0.00,VWS V14.01,2013-03-28 19:39:00,
2013-03-28 14:40:00,69.9,58.9,30.14,South,171,3.0,12.0,68,0.00,,SKC,0.00,VWS V14.01,2013-03-28 19:40:00,
2013-03-28 14:44:00,69.5,58.9,30.14,SSE,161,1.0,16.0,69,0.00,,SKC,0.00,VWS V14.01,2013-03-28 19:44:00,
2013-03-28 14:49:00,69.2,58.6,30.14,SSE,160,8.0,14.0,69,0.00,,SKC,0.00,VWS V14.01,2013-03-28 19:49:00,
2013-03-28 14:50:00,69.4,58.8,30.14,South,180,6.0,16.0,69,0.00,,SKC,0.00,VWS V14.01,2013-03-28 19:50:00,
2013-03-28 14:54:00,69.0,58.8,30.13,South,184,2.0,14.0,70,0.00,,SKC,0.00,VWS V14.01,2013-03-28 19:54:00,
2013-03-28 14:59:00,69.0,59.2,30.13,SSE,166,0.0,9.0,71,0.00,,SKC,0.00,VWS V14.01,2013-03-28 19:59:00,
2013-03-28 15:00:00,69.0,58.8,30.13,SSE,161,9.0,14.0,70,0.00,,SKC,0.00,VWS V14.01,2013-03-28 20:00:00,
2013-03-28 15:04:00,69.1,59.3,30.13,SSE,167,0.0,13.0,71,0.00,,SKC,0.00,VWS V14.01,2013-03-28 20:04:00,
2013-03-28 15:09:00,69.1,59.3,30.13,South,174,0.0,8.0,71,0.00,,SKC,0.00,VWS V14.01,2013-03-28 20:09:00,
2013-03-28 15:10:00,69.1,59.3,30.13,South,169,5.0,13.0,71,0.00,,SKC,0.00,VWS V14.01,2013-03-28 20:10:00,
2013-03-28 15:14:00,69.0,59.2,30.13,SSE,159,4.0,12.0,71,0.00,,SKC,0.00,VWS V14.01,2013-03-28 20:14:00,
2013-03-28 15:19:00,69.0,59.2,30.13,SSE,162,4.0,8.0,71,0.00,,SKC,0.00,VWS V14.01,2013-03-28 20:19:00,
2013-03-28 15:20:00,69.0,59.2,30.13,SSE,162,3.0,12.0,71,0.00,,SKC,0.00,VWS V14.01,2013-03-28 20:20:00,
2013-03-28 15:24:00,68.9,59.1,30.13,SSE,165,6.0,12.0,71,0.00,,SKC,0.00,VWS V14.01,2013-03-28 20:24:00,
2013-03-28 15:29:00,68.6,58.8,30.13,SSE,167,3.0,11.0,71,0.00,,SKC,0.00,VWS V14.01,2013-03-28 20:29:00,
2013-03-28 15:30:00,68.8,59.0,30.13,SSE,162,4.0,12.0,71,0.00,,SKC,0.00,VWS V14.01,2013-03-28 20:30:00,
2013-03-28 15:34:00,68.4,58.6,30.13,South,170,3.0,13.0,71,0.00,,SKC,0.00,VWS V14.01,2013-03-28 20:34:00,
2013-03-28 15:39:00,68.3,58.9,30.12,SSE,167,1.0,9.0,72,0.00,,SKC,0.00,VWS V14.01,2013-03-28 20:39:00,
2013-03-28 15:40:00,68.3,58.5,30.13,SSE,168,4.0,13.0,71,0.00,,SKC,0.00,VWS V14.01,2013-03-28 20:40:00,
2013-03-28 15:44:00,68.2,58.8,30.12,SE,126,8.0,16.0,72,0.00,,SKC,0.00,VWS V14.01,2013-03-28 20:44:00,
2013-03-28 15:49:00,68.3,58.9,30.12,SSE,165,0.0,4.0,72,0.00,,SKC,0.00,VWS V14.01,2013-03-28 20:49:00,
2013-03-28 15:50:00,68.2,58.8,30.12,South,175,2.0,16.0,72,0.00,,SKC,0.00,VWS V14.01,2013-03-28 20:50:00,
2013-03-28 15:54:00,68.3,58.9,30.12,South,173,10.0,12.0,72,0.00,,SKC,0.00,VWS V14.01,2013-03-28 20:54:00,
2013-03-28 15:59:00,68.3,58.9,30.12,South,182,3.0,10.0,72,0.00,,SKC,0.00,VWS V14.01,2013-03-28 20:59:00,
2013-03-28 16:00:00,68.3,58.9,30.12,SSE,163,10.0,12.0,72,0.00,,SKC,0.00,VWS V14.01,2013-03-28 21:00:00,
2013-03-28 16:04:00,68.3,58.9,30.12,SSE,165,4.0,10.0,72,0.00,,SKC,0.00,VWS V14.01,2013-03-28 21:04:00,
2013-03-28 16:09:00,68.4,58.6,30.11,SSE,166,2.0,10.0,71,0.00,,SKC,0.00,VWS V14.01,2013-03-28 21:09:00,
2013-03-28 16:10:00,68.3,58.5,30.12,South,175,6.0,12.0,71,0.00,,SKC,0.00,VWS V14.01,2013-03-28 21:10:00,
2013-03-28 16:14:00,68.6,58.8,30.11,SSE,156,14.0,14.0,71,0.00,,SKC,0.00,VWS V14.01,2013-03-28 21:14:00,
2013-03-28 16:19:00,68.8,58.6,30.11,SSE,162,8.0,10.0,70,0.00,,SKC,0.00,VWS V14.01,2013-03-28 21:19:00,
2013-03-28 16:20:00,68.7,58.5,30.11,SSE,163,2.0,14.0,70,0.00,,SKC,0.00,VWS V14.01,2013-03-28 21:20:00,
2013-03-28 16:24:00,69.1,58.9,30.11,SSE,165,5.0,10.0,70,0.00,,SKC,0.00,VWS V14.01,2013-03-28 21:24:00,
2013-03-28 16:29:00,69.3,58.7,30.11,SSE,164,6.0,9.0,69,0.00,,SKC,0.00,VWS V14.01,2013-03-28 21:29:00,
2013-03-28 16:30:00,69.2,58.6,30.11,South,169,0.0,11.0,69,0.00,,SKC,0.00,VWS V14.01,2013-03-28 21:30:00,
2013-03-28 16:34:00,69.5,58.9,30.11,South,172,0.0,9.0,69,0.00,,SKC,0.00,VWS V14.01,2013-03-28 21:34:00,
2013-03-28 16:39:00,69.5,58.5,30.11,SSE,167,3.0,8.0,68,0.00,,SKC,0.00,VWS V14.01,2013-03-28 21:39:00,
2013-03-28 16:40:00,69.5,58.5,30.11,SSE,165,0.0,10.0,68,0.00,,SKC,0.00,VWS V14.01,2013-03-28 21:40:00,
2013-03-28 16:44:00,69.6,58.6,30.10,SSE,166,0.0,11.0,68,0.00,,SKC,0.00,VWS V14.01,2013-03-28 21:44:00,
2013-03-28 16:49:00,69.7,58.3,30.10,South,171,0.0,9.0,67,0.00,,SKC,0.00,VWS V14.01,2013-03-28 21:49:00,
2013-03-28 16:50:00,69.7,58.7,30.11,SSE,160,4.0,12.0,68,0.00,,SKC,0.00,VWS V14.01,2013-03-28 21:50:00,
2013-03-28 16:54:00,69.9,58.5,30.11,South,173,0.0,9.0,67,0.00,,SKC,0.00,VWS V14.01,2013-03-28 21:54:00,
2013-03-28 16:59:00,70.0,58.5,30.11,SSE,165,6.0,13.0,67,0.00,,SKC,0.00,VWS V14.01,2013-03-28 21:59:00,
2013-03-28 17:00:00,69.9,58.5,30.11,SSE,167,0.0,10.0,67,0.00,,SKC,0.00,VWS V14.01,2013-03-28 22:00:00,
2013-03-28 17:04:00,70.1,58.7,30.11,SSE,166,3.0,14.0,67,0.00,,SKC,0.00,VWS V14.01,2013-03-28 22:04:00,
2013-03-28 17:09:00,70.3,58.8,30.11,SSE,165,0.0,6.0,67,0.00,,SKC,0.00,VWS V14.01,2013-03-28 22:09:00,
2013-03-28 17:10:00,70.2,58.7,30.11,SSE,164,0.0,14.0,67,0.00,,SKC,0.00,VWS V14.01,2013-03-28 22:10:00,
2013-03-28 17:14:00,70.4,58.9,30.11,SSE,160,5.0,11.0,67,0.00,,SKC,0.00,VWS V14.01,2013-03-28 22:14:00,
2013-03-28 17:19:00,70.6,58.7,30.11,SSW,196,0.0,10.0,66,0.00,,SKC,0.00,VWS V14.01,2013-03-28 22:19:00,
2013-03-28 17:20:00,70.5,59.0,30.11,South,172,0.0,11.0,67,0.00,,SKC,0.00,VWS V14.01,2013-03-28 22:20:00,
2013-03-28 17:24:00,70.8,58.9,30.11,SSE,162,5.0,15.0,66,0.00,,SKC,0.00,VWS V14.01,2013-03-28 22:24:00,
2013-03-28 17:29:00,70.9,59.0,30.10,SSE,158,7.0,13.0,66,0.00,,SKC,0.00,VWS V14.01,2013-03-28 22:29:00,
2013-03-28 17:30:00,70.8,58.9,30.10,SSE,157,4.0,15.0,66,0.00,,SKC,0.00,VWS V14.01,2013-03-28 22:30:00,
2013-03-28 17:34:00,70.9,59.0,30.10,SSE,161,0.0,13.0,66,0.00,,SKC,0.00,VWS V14.01,2013-03-28 22:34:00,
2013-03-28 17:39:00,71.0,59.1,30.10,South,169,0.0,9.0,66,0.00,,SKC,0.00,VWS V14.01,2013-03-28 22:39:00,
2013-03-28 17:40:00,71.0,59.1,30.10,SSE,157,6.0,13.0,66,0.00,,SKC,0.00,VWS V14.01,2013-03-28 22:40:00,
2013-03-28 17:44:00,71.1,58.8,30.10,SSE,165,5.0,13.0,65,0.00,,SKC,0.00,VWS V14.01,2013-03-28 22:44:00,
2013-03-28 17:49:00,71.0,58.7,30.10,SSE,167,8.0,12.0,65,0.00,,SKC,0.00,VWS V14.01,2013-03-28 22:49:00,
2013-03-28 17:50:00,71.0,58.7,30.10,SSE,163,2.0,13.0,65,0.00,,SKC,0.00,VWS V14.01,2013-03-28 22:50:00,
2013-03-28 17:54:00,70.8,58.9,30.10,SSE,163,9.0,12.0,66,0.00,,SKC,0.00,VWS V14.01,2013-03-28 22:54:00,
2013-03-28 17:59:00,70.7,58.8,30.10,SSE,163,5.0,13.0,66,0.00,,SKC,0.00,VWS V14.01,2013-03-28 22:59:00,
2013-03-28 18:00:00,70.7,58.8,30.10,SSE,163,7.0,12.0,66,0.00,,SKC,0.00,VWS V14.01,2013-03-28 23:00:00,
2013-03-28 18:04:00,70.5,58.6,30.10,SSE,167,1.0,15.0,66,0.00,,SKC,0.00,VWS V14.01,2013-03-28 23:04:00,
2013-03-28 18:09:00,70.5,58.6,30.10,SSE,164,6.0,9.0,66,0.00,,SKC,0.00,VWS V14.01,2013-03-28 23:09:00,
2013-03-28 18:10:00,70.5,58.6,30.10,SSE,167,0.0,15.0,66,0.00,,SKC,0.00,VWS V14.01,2013-03-28 23:10:00,
2013-03-28 18:14:00,70.5,58.6,30.10,SSE,165,0.0,9.0,66,0.00,,SKC,0.00,VWS V14.01,2013-03-28 23:14:00,
2013-03-28 18:19:00,70.5,58.6,30.10,SSE,157,4.0,10.0,66,0.00,,SKC,0.00,VWS V14.01,2013-03-28 23:19:00,
2013-03-28 18:20:00,70.5,58.6,30.10,SSE,163,9.0,11.0,66,0.00,,SKC,0.00,VWS V14.01,2013-03-28 23:20:00,
2013-03-28 18:24:00,70.4,58.5,30.10,SSE,157,0.0,12.0,66,0.00,,SKC,0.00,VWS V14.01,2013-03-28 23:24:00,
2013-03-28 18:29:00,70.4,58.5,30.10,SSE,158,5.0,9.0,66,0.00,,SKC,0.00,VWS V14.01,2013-03-28 23:29:00,
2013-03-28 18:30:00,70.4,58.5,30.10,SSE,157,3.0,12.0,66,0.00,,SKC,0.00,VWS V14.01,2013-03-28 23:30:00,
2013-03-28 18:34:00,70.3,58.4,30.11,SSE,153,0.0,9.0,66,0.00,,SKC,0.00,VWS V14.01,2013-03-28 23:34:00,
2013-03-28 18:39:00,70.2,58.3,30.11,SSE,159,1.0,10.0,66,0.00,,SKC,0.00,VWS V14.01,2013-03-28 23:39:00,
2013-03-28 18:40:00,70.3,58.4,30.11,SSE,155,3.0,9.0,66,0.00,,SKC,0.00,VWS V14.01,2013-03-28 23:40:00,
2013-03-28 18:44:00,70.1,58.2,30.11,SSE,158,5.0,10.0,66,0.00,,SKC,0.00,VWS V14.01,2013-03-28 23:44:00,
2013-03-28 18:49:00,70.1,58.2,30.11,SSE,166,4.0,10.0,66,0.00,,SKC,0.00,VWS V14.01,2013-03-28 23:49:00,
2013-03-28 18:50:00,70.1,58.2,30.11,SSE,159,0.0,10.0,66,0.00,,SKC,0.00,VWS V14.01,2013-03-28 23:50:00,
2013-03-28 18:54:00,70.0,58.5,30.11,SSE,166,0.0,10.0,67,0.00,,SKC,0.00,VWS V14.01,2013-03-28 23:54:00,
2013-03-28 18:59:00,69.9,58.5,30.11,SSE,165,0.0,5.0,67,0.00,,SKC,0.00,VWS V14.01,2013-03-28 23:59:00,
2013-03-28 19:00:00,69.9,58.5,30.11,SSE,167,0.0,10.0,67,0.00,,SKC,0.00,VWS V14.01,2013-03-29 00:00:00,
2013-03-28 19:04:00,69.8,58.8,30.11,SSE,161,0.0,7.0,68,0.00,,SKC,0.00,VWS V14.01,2013-03-29 00:04:00,
2013-03-28 19:09:00,69.7,58.3,30.11,SSE,160,0.0,10.0,67,0.00,,SKC,0.00,VWS V14.01,2013-03-29 00:09:00,
2013-03-28 19:10:00,69.8,58.4,30.11,SSE,161,0.0,10.0,67,0.00,,SKC,0.00,VWS V14.01,2013-03-29 00:10:00,
2013-03-28 19:14:00,69.7,58.7,30.11,SSE,161,2.0,12.0,68,0.00,,SKC,0.00,VWS V14.01,2013-03-29 00:14:00,
2013-03-28 19:19:00,69.6,58.6,30.12,SSE,163,0.0,7.0,68,0.00,,SKC,0.00,VWS V14.01,2013-03-29 00:19:00,
2013-03-28 19:20:00,69.7,58.7,30.12,SSE,161,3.0,12.0,68,0.00,,SKC,0.00,VWS V14.01,2013-03-29 00:20:00,
2013-03-28 19:24:00,69.6,58.6,30.12,SSE,162,6.0,8.0,68,0.00,,SKC,0.00,VWS V14.01,2013-03-29 00:24:00,
2013-03-28 19:29:00,69.5,58.5,30.12,SSE,159,4.0,6.0,68,0.00,,SKC,0.00,VWS V14.01,2013-03-29 00:29:00,
2013-03-28 19:30:00,69.6,58.6,30.12,SSE,161,0.0,10.0,68,0.00,,SKC,0.00,VWS V14.01,2013-03-29 00:30:00,
2013-03-28 19:34:00,69.5,58.5,30.12,SSE,161,0.0,12.0,68,0.00,,SKC,0.00,VWS V14.01,2013-03-29 00:34:00,
2013-03-28 19:39:00,69.4,58.4,30.12,SSE,161,5.0,10.0,68,0.00,,SKC,0.00,VWS V14.01,2013-03-29 00:39:00,
2013-03-28 19:40:00,69.5,58.5,30.11,SSE,161,0.0,12.0,68,0.00,,SKC,0.00,VWS V14.01,2013-03-29 00:40:00,
2013-03-28 19:44:00,69.4,58.4,30.12,SSE,159,0.0,10.0,68,0.00,,SKC,0.00,VWS V14.01,2013-03-29 00:44:00,
2013-03-28 19:49:00,69.3,58.3,30.12,SSE,159,0.0,9.0,68,0.00,,SKC,0.00,VWS V14.01,2013-03-29 00:49:00,
2013-03-28 19:50:00,69.3,58.3,30.12,SSE,159,0.0,10.0,68,0.00,,SKC,0.00,VWS V14.01,2013-03-29 00:50:00,
2013-03-28 19:54:00,69.2,58.2,30.12,SSE,159,0.0,9.0,68,0.00,,SKC,0.00,VWS V14.01,2013-03-29 00:54:00,
2013-03-28 19:59:00,69.2,58.6,30.12,SSE,159,0.0,11.0,69,0.00,,SKC,0.00,VWS V14.01,2013-03-29 00:59:00,
2013-03-28 20:00:00,69.2,58.2,30.12,SSE,160,0.0,10.0,68,0.00,,SKC,0.00,VWS V14.01,2013-03-29 01:00:00,
2013-03-28 20:04:00,69.0,58.4,30.12,SSE,157,4.0,11.0,69,0.00,,SKC,0.00,VWS V14.01,2013-03-29 01:04:00,
2013-03-28 20:09:00,69.0,58.4,30.12,SSE,157,0.0,5.0,69,0.00,,SKC,0.00,VWS V14.01,2013-03-29 01:09:00,
2013-03-28 20:10:00,69.0,58.4,30.12,SSE,157,0.0,11.0,69,0.00,,SKC,0.00,VWS V14.01,2013-03-29 01:10:00,
2013-03-28 20:14:00,68.8,58.2,30.12,SSE,157,0.0,9.0,69,0.00,,SKC,0.00,VWS V14.01,2013-03-29 01:14:00,
2013-03-28 20:19:00,68.7,58.1,30.12,SSE,157,0.0,4.0,69,0.00,,SKC,0.00,VWS V14.01,2013-03-29 01:19:00,
2013-03-28 20:20:00,68.8,58.2,30.12,SSE,157,0.0,9.0,69,0.00,,SKC,0.00,VWS V14.01,2013-03-29 01:20:00,
2013-03-28 20:24:00,68.6,58.4,30.13,SSE,158,5.0,7.0,70,0.00,,SKC,0.00,VWS V14.01,2013-03-29 01:24:00,
2013-03-28 20:29:00,68.6,58.4,30.13,SSE,159,0.0,7.0,70,0.00,,SKC,0.00,VWS V14.01,2013-03-29 01:29:00,
2013-03-28 20:30:00,68.6,58.4,30.12,SSE,158,0.0,7.0,70,0.00,,SKC,0.00,VWS V14.01,2013-03-29 01:30:00,
2013-03-28 20:34:00,68.5,58.3,30.12,SSE,159,0.0,7.0,70,0.00,,SKC,0.00,VWS V14.01,2013-03-29 01:34:00,
2013-03-28 20:39:00,68.3,58.5,30.12,SSE,159,0.0,4.0,71,0.00,,SKC,0.00,VWS V14.01,2013-03-29 01:39:00,
2013-03-28 20:40:00,68.4,58.2,30.12,SSE,159,0.0,7.0,70,0.00,,SKC,0.00,VWS V14.01,2013-03-29 01:40:00,
2013-03-28 20:44:00,68.1,58.3,30.13,SSE,159,0.0,6.0,71,0.00,,SKC,0.00,VWS V14.01,2013-03-29 01:44:00,
2013-03-28 20:49:00,67.9,58.2,30.13,SSE,159,3.0,5.0,71,0.00,,SKC,0.00,VWS V14.01,2013-03-29 01:49:00,
2013-03-28 20:50:00,68.0,58.3,30.13,SSE,159,0.0,6.0,71,0.00,,SKC,0.00,VWS V14.01,2013-03-29 01:50:00,
2013-03-28 20:54:00,67.6,58.3,30.13,SSE,160,0.0,7.0,72,0.00,,SKC,0.00,VWS V14.01,2013-03-29 01:54:00,
2013-03-28 20:59:00,67.4,58.1,30.13,SSE,159,0.0,8.0,72,0.00,,SKC,0.00,VWS V14.01,2013-03-29 01:59:00,
2013-03-28 21:00:00,67.5,58.2,30.13,SSE,160,0.0,8.0,72,0.00,,SKC,0.00,VWS V14.01,2013-03-29 02:00:00,
2013-03-28 21:04:00,67.2,57.9,30.13,SSE,160,0.0,8.0,72,0.00,,SKC,0.00,VWS V14.01,2013-03-29 02:04:00,
2013-03-28 21:09:00,66.8,57.9,30.13,SSE,160,0.0,0.0,73,0.00,,SKC,0.00,VWS V14.01,2013-03-29 02:09:00,
2013-03-28 21:10:00,67.0,58.1,30.12,SSE,160,0.0,8.0,73,0.00,,SKC,0.00,VWS V14.01,2013-03-29 02:10:00,
2013-03-28 21:14:00,66.6,58.1,30.13,SSE,159,0.0,1.0,74,0.00,,SKC,0.00,VWS V14.01,2013-03-29 02:14:00,
2013-03-28 21:19:00,66.4,57.9,30.13,SSE,160,0.0,5.0,74,0.00,,SKC,0.00,VWS V14.01,2013-03-29 02:19:00,
2013-03-28 21:20:00,66.5,58.0,30.13,SSE,160,0.0,4.0,74,0.00,,SKC,0.00,VWS V14.01,2013-03-29 02:20:00,
2013-03-28 21:24:00,66.1,57.6,30.13,SSE,160,0.0,5.0,74,0.00,,SKC,0.00,VWS V14.01,2013-03-29 02:24:00,
2013-03-28 21:29:00,65.9,57.8,30.13,SSE,160,0.0,1.0,75,0.00,,SKC,0.00,VWS V14.01,2013-03-29 02:29:00,
2013-03-28 21:30:00,66.1,58.0,30.13,SSE,160,1.0,5.0,75,0.00,,SKC,0.00,VWS V14.01,2013-03-29 02:30:00,
2013-03-28 21:34:00,65.7,57.6,30.13,SSE,160,0.0,1.0,75,0.00,,SKC,0.00,VWS V14.01,2013-03-29 02:34:00,
2013-03-28 21:39:00,65.5,57.7,30.13,SSE,160,0.0,2.0,76,0.00,,SKC,0.00,VWS V14.01,2013-03-29 02:39:00,
2013-03-28 21:40:00,65.6,57.5,30.13,SSE,160,0.0,1.0,75,0.00,,SKC,0.00,VWS V14.01,2013-03-29 02:40:00,
2013-03-28 21:44:00,65.3,57.5,30.14,SSE,160,0.0,2.0,76,0.00,,SKC,0.00,VWS V14.01,2013-03-29 02:44:00,
2013-03-28 21:49:00,65.1,57.4,30.14,SSE,160,0.0,1.0,76,0.00,,SKC,0.00,VWS V14.01,2013-03-29 02:49:00,
2013-03-28 21:50:00,65.2,57.5,30.14,SSE,160,0.0,2.0,76,0.00,,SKC,0.00,VWS V14.01,2013-03-29 02:50:00,
2013-03-28 21:54:00,64.9,57.5,30.13,SSE,160,5.0,6.0,77,0.00,,SKC,0.00,VWS V14.01,2013-03-29 02:54:00,
2013-03-28 21:59:00,64.8,57.4,30.13,SSE,160,0.0,0.0,77,0.00,,SKC,0.00,VWS V14.01,2013-03-29 02:59:00,
2013-03-28 22:00:00,64.8,57.4,30.13,SSE,160,0.0,6.0,77,0.00,,SKC,0.00,VWS V14.01,2013-03-29 03:00:00,
2013-03-28 22:04:00,64.6,57.6,30.14,SSE,160,0.0,5.0,78,0.00,,SKC,0.00,VWS V14.01,2013-03-29 03:04:00,
2013-03-28 22:09:00,64.5,57.5,30.14,SSE,160,0.0,0.0,78,0.00,,SKC,0.00,VWS V14.01,2013-03-29 03:09:00,
2013-03-28 22:10:00,64.6,57.6,30.14,SSE,160,0.0,5.0,78,0.00,,SKC,0.00,VWS V14.01,2013-03-29 03:10:00,
2013-03-28 22:14:00,64.4,57.8,30.14,SSE,160,0.0,0.0,79,0.00,,SKC,0.00,VWS V14.01,2013-03-29 03:14:00,
2013-03-28 22:19:00,64.3,57.7,30.14,SSE,160,0.0,0.0,79,0.00,,SKC,0.00,VWS V14.01,2013-03-29 03:19:00,
2013-03-28 22:20:00,64.3,57.7,30.14,SSE,160,0.0,0.0,79,0.00,,SKC,0.00,VWS V14.01,2013-03-29 03:20:00,
2013-03-28 22:24:00,64.1,57.5,30.14,SSE,160,0.0,1.0,79,0.00,,SKC,0.00,VWS V14.01,2013-03-29 03:24:00,
2013-03-28 22:29:00,64.0,57.7,30.14,SSE,160,0.0,3.0,80,0.00,,SKC,0.00,VWS V14.01,2013-03-29 03:29:00,
2013-03-28 22:30:00,64.1,57.5,30.14,SSE,160,0.0,2.0,79,0.00,,SKC,0.00,VWS V14.01,2013-03-29 03:30:00,
2013-03-28 22:34:00,63.9,57.6,30.15,SSE,160,0.0,3.0,80,0.00,,SKC,0.00,VWS V14.01,2013-03-29 03:34:00,
2013-03-28 22:39:00,63.8,57.5,30.14,SSE,160,0.0,2.0,80,0.00,,SKC,0.00,VWS V14.01,2013-03-29 03:39:00,
2013-03-28 22:40:00,63.8,57.5,30.15,SSE,160,0.0,6.0,80,0.00,,SKC,0.00,VWS V14.01,2013-03-29 03:40:00,
2013-03-28 22:44:00,63.8,57.5,30.15,SSE,160,0.0,2.0,80,0.00,,SKC,0.00,VWS V14.01,2013-03-29 03:44:00,
2013-03-28 22:49:00,63.7,57.8,30.15,SSE,159,0.0,6.0,81,0.00,,SKC,0.00,VWS V14.01,2013-03-29 03:49:00,
2013-03-28 22:50:00,63.7,57.4,30.14,SSE,160,0.0,2.0,80,0.00,,SKC,0.00,VWS V14.01,2013-03-29 03:50:00,
2013-03-28 22:54:00,63.5,57.6,30.15,SSE,159,0.0,6.0,81,0.00,,SKC,0.00,VWS V14.01,2013-03-29 03:54:00,
2013-03-28 22:59:00,63.4,57.5,30.15,SSE,159,0.0,0.0,81,0.00,,SKC,0.00,VWS V14.01,2013-03-29 03:59:00,
2013-03-28 23:00:00,63.4,57.5,30.15,SSE,159,0.0,0.0,81,0.00,,SKC,0.00,VWS V14.01,2013-03-29 04:00:00,
2013-03-28 23:05:00,63.3,57.7,30.15,SSE,159,0.0,6.0,82,0.00,,SKC,0.00,VWS V14.01,2013-03-29 04:05:00,
2013-03-28 23:10:00,63.2,57.6,30.15,SSE,159,0.0,0.0,82,0.00,,SKC,0.00,VWS V14.01,2013-03-29 04:10:00,
2013-03-28 23:15:00,63.1,57.5,30.15,SSE,159,0.0,3.0,82,0.00,,SKC,0.00,VWS V14.01,2013-03-29 04:15:00,
2013-03-28 23:20:00,63.0,57.4,30.15,SSE,159,0.0,0.0,82,0.00,,SKC,0.00,VWS V14.01,2013-03-29 04:20:00,
2013-03-28 23:25:00,62.7,57.1,30.15,SSE,159,0.0,0.0,82,0.00,,SKC,0.00,VWS V14.01,2013-03-29 04:25:00,
2013-03-28 23:30:00,62.5,57.3,30.15,SSE,159,0.0,0.0,83,0.00,,SKC,0.00,VWS V14.01,2013-03-29 04:30:00,
2013-03-28 23:35:00,62.3,57.1,30.15,SSE,159,0.0,1.0,83,0.00,,SKC,0.00,VWS V14.01,2013-03-29 04:35:00,
2013-03-28 23:40:00,62.1,56.9,30.16,SSE,159,0.0,0.0,83,0.00,,SKC,0.00,VWS V14.01,2013-03-29 04:40:00,
2013-03-28 23:45:00,62.0,57.1,30.15,SSE,159,0.0,0.0,84,0.00,,SKC,0.00,VWS V14.01,2013-03-29 04:45:00,
2013-03-28 23:50:00,61.8,56.9,30.15,SSE,159,0.0,4.0,84,0.00,,SKC,0.00,VWS V14.01,2013-03-29 04:50:00,
2013-03-28 23:55:00,61.7,57.2,30.15,SSE,159,0.0,4.0,85,0.00,,SKC,0.00,VWS V14.01,2013-03-29 04:55:00,